Temp
13 13 13 13 12 14 13 12 12 12 11 11 11 11 12 12 13 15 15 14 13 13
13 13 13 12 13 13 14 13 13 12 12 13 12 12 12 12 14 14 14 13 13 12
13 13 13 13 12 13 13 13 13 12 12 11 11 11 11 12 13 13 13 12 11 11
12 12 13 12 13 14 14 13 13 12 12 11 11 11 11 12 13 13 13 12 12 10
11 11 12 13 12 12 11 11 11 11 11 11 11 11 12 12 12 12 12 12 11 10
10 11 11 11 11 11 11 11 11 11 11 11 11 11 11 11 11 11 10 10 9 9
11 11 11 11 11 11 11 11 11 11 11 10 10 10 10 9 9 9 8 8 8 7
10 10 10 10 10 10 10 10 10 9 9 9 9 8 8 7 7 6 6 5 5 6
10 10 10 10 9 9 9 9 9 9 9 8 7 7 6 5 5 4 4 4 4 5
9 9 9 9 8 8 8 8 8 8 8 7 6 5 4 3 3 3 3 3 4 4
8 8 8 7 7 7 7 7 7 6 6 6 5 5 4 4 3 3 3 3 3 3
8 7 7 7 7 7 6 6 6 6 5 5 4 4 4 3 4 3 2 2 2 2
7 7 7 7 6 6 6 6 5 5 4 4 4 3 3 3 2 2 2 1 1 1
6 6 6 6 6 5 5 5 5 4 4 3 3 3 2 2 1 1 1 1 1 1
Height
1517 1520 1519 1528 1534 1533 1530 1529 1532 1537 1539 1540 1540 1544 1545 1547 1549 1551 1552 1553 1552 1553
1516 1517 1519 1527 1529 1528 1527 1529 1531 1530 1534 1537 1538 1540 1543 1544 1544 1545 1545 1547 1546 1547
1510 1512 1518 1523 1524 1521 1524 1526 1527 1527 1528 1530 1532 1534 1536 1537 1538 1538 1538 1538 1539 1540
1506 1508 1510 1513 1515 1516 1516 1518 1520 1521 1523 1524 1526 1528 1530 1530 1531 1532 1531 1532 1532 1532
1503 1504 1505 1507 1509 1511 1514 1514 1515 1518 1519 1521 1523 1525 1524 1524 1524 1524 1524 1524 1524 1524
1500 1499 1502 1505 1505 1507 1509 1511 1511 1512 1515 1516 1518 1518 1517 1517 1517 1516 1516 1517 1517 1518
1496 1497 1499 1501 1503 1504 1504 1507 1508 1509 1510 1510 1511 1511 1511 1510 1509 1511 1511 1510 1511 1513
1493 1495 1497 1499 1500 1501 1502 1504 1505 1505 1506 1504 1506 1506 1505 1505 1504 1504 1504 1505 1506 1508
1492 1493 1496 1497 1497 1499 1500 1501 1503 1503 1502 1501 1502 1501 1501 1500 1499 1499 1499 1501 1502 1502
1490 1491 1493 1494 1495 1498 1499 1498 1499 1498 1498 1497 1497 1498 1496 1496 1495 1495 1495 1496 1497 1499
1488 1489 1491 1492 1493 1494 1494 1494 1495 1495 1494 1493 1492 1493 1493 1493 1493 1493 1492 1493 1495 1495
1486 1487 1489 1489 1491 1491 1491 1490 1489 1491 1491 1491 1490 1488 1489 1490 1490 1489 1488 1490 1490 1492
1482 1483 1484 1484 1484 1484 1485 1487 1488 1488 1488 1487 1486 1485 1486 1487 1486 1485 1485 1487 1488 1489
1478 1479 1480 1480 1481 1482 1483 1483 1483 1483 1483 1483 1483 1483 1482 1483 1483 1483 1484 1485 1485 1485
Wind_Speed
7 9 4 11 21 16 14 23 23 20 15 13 17 13 11 18 23 24 34 32 34 36
18 18 18 27 21 21 15 11 7 15 8 8 12 16 21 30 30 32 35 34 30 28
25 31 26 27 26 32 26 27 24 22 23 24 27 26 31 34 34 33 32 30 28 26
31 37 34 34 33 32 29 30 30 31 31 33 34 29 27 27 27 29 31 31 32 31
20 18 20 23 22 19 17 18 17 17 17 19 21 23 25 26 27 28 29 27 28 29
13 12 11 11 12 12 12 13 13 15 16 18 20 22 24 24 25 25 24 23 22 21
15 14 13 11 10 10 10 10 11 12 13 15 18 19 21 22 23 23 22 22 22 19
13 11 10 9 9 8 8 8 8 9 11 14 17 18 20 21 21 21 21 19 18 20
11 11 11 10 8 8 7 7 7 9 10 12 14 17 17 17 19 19 20 19 20 21
11 10 9 8 8 8 7 6 8 10 12 12 12 12 14 15 15 16 16 17 18 20
10 10 10 10 10 10 9 10 10 10 11 12 11 10 14 16 15 16 16 17 18 18
10 10 11 12 12 12 12 12 13 14 13 13 13 10 12 14 16 14 14 15 15 15
11 12 12 12 11 11 12 13 14 14 13 13 13 11 11 14 13 13 13 14 14 14
12 12 12 13 13 14 13 13 14 14 14 14 12 12 11 13 12 13 14 14 14 14
Wind_Direction
202 228 198 238 254 248 290 269 250 245 282 253 270 264 280 273 271 273 254 274 269 274
237 236 239 242 247 254 245 224 238 243 297 251 235 231 241 255 252 252 265 271 270 270
245 237 237 247 247 250 250 247 241 239 232 241 244 247 248 249 252 258 264 267 266 265
237 235 232 232 236 244 243 243 243 242 244 240 244 242 245 250 255 259 264 267 268 262
234 234 237 242 243 244 241 234 234 236 239 241 246 251 256 260 261 265 268 267 264 261
216 216 221 221 217 219 224 230 232 234 240 249 254 258 263 265 267 267 267 266 262 262
199 205 210 217 221 228 237 247 253 260 264 267 268 269 269 269 269 268 266 261 259 250
202 207 215 222 227 235 242 252 268 276 285 287 283 280 275 274 270 268 269 263 257 251
209 210 213 217 220 224 233 248 269 282 294 302 306 297 281 276 274 271 267 259 255 253
205 207 213 219 226 235 245 264 284 302 303 307 310 311 293 282 275 271 266 256 247 243
212 217 221 226 232 242 255 269 273 281 289 296 296 296 291 278 272 266 257 249 245 242
225 229 230 232 236 244 260 277 282 280 280 283 282 282 284 276 273 262 249 238 232 233
234 239 241 245 250 264 276 275 275 268 268 274 276 271 273 274 269 250 240 237 233 236
237 242 248 258 269 270 272 275 275 274 271 271 270 270 267 270 265 241 238 238 242 238